Regional Weather Roundup
Issued by NWS

Home | Current Version | Previous Version | Graphics & Text | Print | Product List | Glossary On
Versions: 1 2 3 4 5 6 7 8 9 10 11 12 13 14 15 16 17 18 19 20 21 22 23 24 25 26 27 28 29 30 31 32 33 34 35 36 37 38 39 40 41 42 43 44 45 46 47 48 49 50
000
ASUS45 KBOU 300807
RWRCO

WEATHER ROUNDUP FOR COLORADO
NATIONAL WEATHER SERVICE DENVER/BOULDER CO
200 AM MDT TUE MAY 30 2017

NOTE: "FAIR" INDICATES FEW OR NO CLOUDS BELOW 12000 FEET WITH NO
SIGNIFICANT WEATHER AND/OR OBSTRUCTIONS TO VISIBILITY.

COZ001>005-013-030-031-300900-
...NORTHWEST COLORADO...

CITY           SKY/WX    TMP DP  RH WIND       PRES   REMARKS
CRAIG          FAIR      41  36  82 CALM      30.23S
HAYDEN         FAIR      46  34  61 E8        30.25S
MEEKER         FAIR      45  35  68 E7        30.23S
RABBIT EARS PA FAIR      37  30  75 CALM      30.44S
STEAMBOAT SPGS FAIR      43  33  67 CALM      30.27S
WALDEN           N/A     34  32  93 SE9       30.35S WCI  26
$$

COZ006>008-011-300900-
...WEST CENTRAL VALLEYS...

CITY           SKY/WX    TMP DP  RH WIND       PRES   REMARKS
GRAND JUNCTION FAIR      62  29  28 NE6       30.10R
MONTROSE       FAIR      55  26  32 SE13      30.18R
EAGLE          FAIR      45  33  63 SE3       30.29S
RIFLE          FAIR      51  30  44 E6        30.19R
DELTA          FAIR      58  28  31 E8        30.14S
NUCLA          FAIR      54  27  35 E10       30.19S
$$

COZ017>023-064>068-300900-
...SOUTHWEST COLORADO...

CITY           SKY/WX    TMP DP  RH WIND       PRES   REMARKS
DURANGO        FAIR      46  29  51 E5        30.23R
CORTEZ         FAIR      41  33  73 E6        30.17R
PAGOSA SPRINGS FAIR      47  27  45 CALM      30.31S
TELLURIDE      FAIR      44  26  49 SE6       30.37S
WOLF CREEK PAS MOCLDY    34  27  75 SW9       30.55S WCI  26
$$

COZ009-010-012-014-032>034-037-058>063-300900-
...CENTRAL COLORADO...

CITY           SKY/WX    TMP DP  RH WIND       PRES   REMARKS
ASPEN          FAIR      40  30  67 S6        30.30R
BUENA VISTA    CLOUDY    44  35  72 CALM      30.36S
COPPER MTN     FAIR      37  28  70 NW6       30.50F
BERTHOUD PASS  FAIR      30  19  64 W7        30.51F WCI  23
COTTONWOOD PAS CLOUDY    45  34  65 CALM      30.43S
GUNNISON       FAIR      41  29  62 N8        30.32R
KREMMLING      FAIR      43  37  81 CALM      30.34S
LEADVILLE      FAIR      33  28  81 CALM      30.41S
MONARCH PASS   FOG       32  32 100 E9        30.61R VSB<1/4 WCI  24
SALIDA         FAIR      45  37  71 SW5       30.42S
SUNLIGHT       FAIR      36  28  75 NE7       30.48S
WILKERSON PASS FAIR      32  32 100 SW5       30.50S WCI  27
$$

COZ069>075-300900-
...SAN LUIS VALLEY/SANGRE DE CRISTO MOUNTAINS...

CITY           SKY/WX    TMP DP  RH WIND       PRES   REMARKS
ALAMOSA        FAIR      47  39  74 E12       30.30S
DEL NORTE      FAIR      45  34  66 CALM      30.34S
LA VETA PASS   FAIR      37  32  81 MISG      30.54F
SAGUACHE       FAIR      41  32  70 E5        30.34R
$$

COZ035-036-038>040-300900-
...NORTHERN COLORADO FRONT RANGE...

CITY           SKY/WX    TMP DP  RH WIND       PRES   REMARKS
DENVER INTL AP FAIR      50  42  74 SW8       30.22F
DMNS CITY PARK   N/A     51  44  75 SE9       30.23F
AURORA         NOT AVBL
FRONT RANGE AP FAIR      46  45  93 S7        30.23F
ERIE MUNI ARPT FAIR      47  43  88 SW3       30.22S
BOULDER MUN AP FAIR      54  41  62 W7        30.21F
CENTENNIAL     FAIR      48  42  80 CALM      30.25S
BROOMFIELD     FAIR      50  41  71 CALM      30.24S
FORT COLLINS   FAIR      51  45  79 N3        30.22F
LONGMONT       FAIR      48  42  81 W5        30.23F HAZE
$$

COZ041-046-047-076>085-087-088-300900-
...PIKES PEAK/PALMER DIVIDE AND SOUTHERN FOOTHILLS...

CITY           SKY/WX    TMP DP  RH WIND       PRES   REMARKS
COLO. SPRINGS  FAIR      51  44  77 S5        30.29F
A. F. ACADEMY  CLOUDY    45  45  99 N7        30.30S
SCHRIEVER AFB  FAIR      46  42  84 SW8       30.29F
CHEYENNE MTN   FAIR      51  38  60 SW10      30.24F
ELLICOTT       FAIR       1  32 100 CALM      30.28F
FALCON         CLOUDY    47  44  91 SW7       30.32S
FORT CARSON    FAIR      51  41  68 SW7       30.27F
LIMON          FAIR      39  39 100 N7        30.25F
MONUMENT HILL  MOCLDY    45  39  81 S7        30.32S
CANON CITY     NOT AVBL
WALSENBURG     FAIR      48  45  87 CALM      30.27F
TRINIDAD       MOCLDY    52  45  77 W18G24    30.26F
$$

COZ042>045-048>051-090-091-300900-
...NORTHEAST COLORADO...

CITY           SKY/WX    TMP DP  RH WIND       PRES   REMARKS
GREELEY ARPT   FAIR      48  45  89 N3        30.21F
AKRON          FAIR      49  42  77 W8        30.20F
BURLINGTON     FAIR      49  46  90 SW9       30.19F
WRAY           FAIR      46  46 100 W5        30.16F
YUMA           FAIR      45  36  70 W8        30.17F
STERLING       NOT AVBL
HOLYOKE        NOT AVBL
FORT MORGAN    FAIR      48  45  88 CALM      30.20F
$$

COZ086-089-092>099-300900-
...SOUTHEAST COLORADO...

CITY           SKY/WX    TMP DP  RH WIND       PRES   REMARKS
PUEBLO         FAIR      52  46  80 NW7       30.22F
LA JUNTA       FAIR      56  49  77 W10       30.20S
LAMAR          FAIR      52  49  89 S6        30.17F
SPRINGFIELD      N/A     51  49  92 S5        30.21S
$$



USA.gov is the U.S. government's official web portal to all federal, state and local government web resources and services.